Observations
| Time | Sensor | AQI | SAQ | Temp °C | Hum % | Pres Pa | CO μg/m³ | H₂S μg/m³ | NO μg/m³ | NO₂ μg/m³ | O₃ μg/m³ | SO₂ μg/m³ | CO₂e PPM | VOC PPM | PM1 μg/m³ | PM2.5 μg/m³ | PM4 μg/m³ | PM10 μg/m³ | TPS µm |
|---|---|---|---|---|---|---|---|---|---|---|---|---|---|---|---|---|---|---|---|
| Tuesday 11 August 2026 | |||||||||||||||||||
| 01:55 | Trim Market St | 2 | 14.4 | 65 | 57,537 | 0.27 | 0 | 3.07 | 14.32 | 35.17 | 0 | 1.43 | 3.28 | 4.91 | |||||
| 01:55 | Trim Patrick St | 1 | 12.6 | 73 | 38,460 | 0.28 | 5.96 | 3.82 | 34.38 | 8.88 | 0 | 3.71 | 7.8 | 8.58 | |||||
| 01:54 | Trim Market St | 2 | 14.4 | 65 | 57,547 | 0.27 | 0 | 3 | 14.03 | 30.66 | 0 | 2.14 | 3.78 | 5.56 | |||||
| 01:54 | Trim Patrick St | 1 | 12.7 | 73 | 38,460 | 0.26 | 5.37 | 3.83 | 33.85 | 9.49 | 0 | 2.86 | 7.8 | 8.58 | |||||
| 01:53 | Trim Market St | 2 | 14.4 | 65 | 57,552 | 0.28 | 0 | 2.51 | 11.9 | 45.43 | 0 | 0.71 | 3.29 | 4.91 | |||||
| 01:53 | Trim Patrick St | 1 | 12.7 | 73 | 38,460 | 0.27 | 5.71 | 3.83 | 33.84 | 10.63 | 0 | 3.71 | 7.09 | 7.8 | |||||
| 01:52 | Trim Patrick St | 1 | 12.7 | 73 | 38,460 | 0.26 | 5.06 | 3.82 | 32.03 | 10.85 | 0 | 2.86 | 6.38 | 7.02 | |||||
| 01:51 | Trim Patrick St | 1 | 12.7 | 73 | 38,460 | 0.28 | 4.83 | 3.69 | 30.65 | 12.33 | 0 | 2.86 | 7.11 | 7.82 | |||||
| 01:51 | Trim Market St | 2 | 14.4 | 65 | 57,563 | 0.28 | 0 | 2.94 | 13.74 | 37.59 | 0 | 1.43 | 2.8 | 4.25 | |||||
| 01:50 | Trim Patrick St | 1 | 12.7 | 73 | 38,460 | 0.27 | 4.96 | 3.61 | 30.65 | 12.71 | 0 | 2.86 | 7.82 | 8.6 | |||||
| 01:49 | Trim Patrick St | 1 | 12.7 | 73 | 38,460 | 0.28 | 5.11 | 3.32 | 29.29 | 12.09 | 0 | 2.86 | 7.11 | 7.82 | |||||
| 01:49 | Trim Market St | 2 | 14.5 | 65 | 57,577 | 0.27 | 0 | 2.88 | 14.47 | 36.09 | 0 | 0.71 | 2.8 | 4.24 | |||||
| 01:48 | Trim Patrick St | 1 | 12.7 | 73 | 38,460 | 0.25 | 5.68 | 3.66 | 32.91 | 9.9 | 0 | 3.71 | 7.12 | 7.83 | |||||
| 01:48 | Trim Market St | 2 | 14.5 | 65 | 57,585 | 0.28 | 0 | 2.36 | 13.07 | 35.9 | 0 | 1.43 | 3.79 | 6.22 | |||||
| 01:47 | Trim Patrick St | 1 | 12.7 | 73 | 38,460 | 0.27 | 7.44 | 3.66 | 36.5 | 9.22 | 0 | 4.57 | 7.84 | 8.63 | |||||
| 01:47 | Trim Market St | 2 | 14.5 | 65 | 57,592 | 0.26 | 0 | 2.4 | 13.05 | 38.54 | 0 | 1.43 | 2.81 | 4.24 | |||||
| 01:46 | Trim Patrick St | 1 | 12.7 | 73 | 38,460 | 0.26 | 5.94 | 3.78 | 42.76 | 3.71 | 0 | 2.86 | 7.13 | 7.85 | |||||
| 01:46 | Trim Market St | 2 | 14.5 | 65 | 57,602 | 0.28 | 0 | 2.3 | 15.78 | 32.93 | 0 | 1.43 | 3.3 | 4.9 | |||||
| 01:45 | Trim Patrick St | 1 | 12.8 | 73 | 38,460 | 0.27 | 5.35 | 3.79 | 33.28 | 10.7 | 0 | 2.86 | 7.13 | 7.84 | |||||
| 01:45 | Trim Market St | 2 | 14.5 | 65 | 57,610 | 0.27 | 0 | 1.87 | 13.31 | 37.91 | 0 | 2.14 | 3.8 | 5.55 | |||||